This is the latest recevied weather packets stored in our database for station/object KI6SYE. If no packets are shown the sender has not sent any weather packets the latest 10 day(s).
| Time | Temp. | Humidity | Pressure | Rain* | Wind** | Luminosity | Snow |
|---|---|---|---|---|---|---|---|
| 1777951251 | 15° C | 87% | 1014.8 hPa | 0 mm | - | 0 W/m² | - |
| 1777950949 | 15° C | 87% | 1014.6 hPa | 0 mm | - | 0 W/m² | - |
| 1777950645 | 15° C | 87% | 1014.7 hPa | 0 mm | - | 0 W/m² | - |
| 1777950343 | 15° C | 86% | 1014.6 hPa | 0 mm | - | 0 W/m² | - |
| 1777950038 | 15° C | 87% | 1014.5 hPa | 0 mm | - | 0 W/m² | - |
| 1777949734 | 15° C | 87% | 1014.6 hPa | 0 mm | - | 0 W/m² | - |
| 1777949433 | 15° C | 87% | 1014.4 hPa | 0 mm | - | 0 W/m² | - |
| 1777949130 | 15° C | 87% | 1014.7 hPa | 0 mm | - | 1 W/m² | - |
| 1777948827 | 15° C | 86% | 1014.7 hPa | 0 mm | - | 2 W/m² | - |
| 1777948524 | 15° C | 86% | 1014.7 hPa | 0 mm | - | 4 W/m² | - |
| 1777948222 | 15° C | 86% | 1014.6 hPa | 0 mm | - | 6 W/m² | - |
| 1777947919 | 15.56° C | 85% | 1014.5 hPa | 0 mm | - | 9 W/m² | - |
| 1777947616 | 15° C | 85% | 1014.7 hPa | 0 mm | - | 12 W/m² | - |
| 1777947313 | 15.56° C | 85% | 1014.5 hPa | 0 mm | - | 16 W/m² | - |
| 1777947009 | 15.56° C | 85% | 1014.6 hPa | 0 mm | - | 19 W/m² | - |
| 1777946709 | 15.56° C | 84% | 1014.8 hPa | 0 mm | - | 22 W/m² | - |
| 1777946406 | 15.56° C | 83% | 1014.7 hPa | 0 mm | - | 27 W/m² | - |
| 1777946103 | 15.56° C | 82% | 1014.5 hPa | 0 mm | - | 32 W/m² | - |
| 1777945800 | 15.56° C | 83% | 1014.7 hPa | 0 mm | - | 41 W/m² | - |
| 1777945498 | 16.11° C | 82% | 1014.6 hPa | 0 mm | - | 48 W/m² | - |
| 1777945195 | 16.11° C | 82% | 1014.6 hPa | 0 mm | - | 61 W/m² | - |
| 1777944891 | 16.67° C | 81% | 1014.6 hPa | 0 mm | - | 72 W/m² | - |
| 1777944589 | 16.67° C | 79% | 1014.7 hPa | 0 mm | - | 78 W/m² | - |
| 1777944287 | 16.67° C | 77% | 1014.7 hPa | 0 mm | - | 82 W/m² | - |
| 1777943983 | 16.67° C | 82% | 1014.4 hPa | 0 mm | - | 83 W/m² | - |
* Rain latest hour (hover to see other rain measurements)
** Current wind speed in m/s (hover to see current wind gust speed)